GFSGL_250_spd_057.txt.gz
Wind_Speed
62 61 63 65 61 59 60 61 62 63 66 67 68 69 70 72 73 74 75 77 78 79 82 84 86 87 89 91 92 94 97 98 99 105 109 111 113 115 115 117 120 124 123
71 68 65 67 64 64 62 64 65 66 68 71 73 74 74 76 78 78 78 81 82 84 86 88 89 91 93 95 97 101 103 105 105 111 114 114 116 116 118 120 123 124 127
69 69 69 69 69 68 67 67 69 70 71 73 76 78 79 80 81 83 83 84 86 88 89 91 93 95 96 99 102 106 106 106 109 113 113 115 116 117 117 122 122 123 126
72 71 72 73 72 71 72 74 76 75 76 76 79 80 82 83 84 85 86 89 92 95 98 98 97 98 101 103 106 107 110 111 113 113 111 113 116 119 120 122 124 127 129
78 76 76 74 74 74 77 79 80 81 80 81 81 82 83 85 88 91 94 96 98 101 100 102 103 104 107 107 110 113 112 111 115 112 113 115 117 121 126 129 131 134 135
82 81 82 82 82 82 81 82 84 86 84 81 82 85 88 91 94 97 98 100 101 104 106 108 109 112 114 112 110 110 112 113 112 113 115 117 123 129 131 132 133 132 131
88 88 88 87 85 86 87 88 90 88 87 88 90 93 94 96 99 100 102 104 107 109 110 112 115 113 110 108 108 109 111 113 116 121 124 126 126 130 133 133 132 130 128
93 94 93 92 93 91 91 92 93 95 97 97 96 96 97 101 102 103 105 109 111 113 114 110 109 108 108 110 110 117 116 121 126 124 125 128 131 131 130 130 129 127 125
94 94 95 96 98 99 100 100 98 98 97 97 98 100 100 100 103 106 109 112 111 109 107 108 104 108 107 110 115 117 119 123 126 127 128 128 128 129 129 126 125 125 124
99 96 96 97 99 100 101 101 98 98 98 99 100 101 101 104 105 105 106 108 107 109 114 114 112 114 112 115 121 122 121 123 125 126 128 127 126 125 125 126 125 126 129
93 93 91 92 91 92 93 94 94 95 96 98 99 99 99 101 101 104 106 107 108 110 110 111 115 114 119 121 120 120 122 123 123 125 125 124 124 125 127 129 130 129 125
95 94 94 93 93 90 93 93 91 94 95 97 97 100 103 105 104 105 106 110 113 115 115 116 118 119 120 122 123 123 122 124 125 126 128 128 128 128 129 129 126 125 126
98 96 95 96 96 97 98 99 100 102 104 105 107 110 110 109 109 111 114 116 115 117 119 119 119 120 121 121 122 122 123 124 125 128 130 130 127 126 125 125 125 125 126
108 106 106 105 103 106 105 106 108 110 111 113 114 113 115 117 116 117 119 121 122 120 119 118 118 119 121 121 122 125 125 126 126 125 126 126 127 127 126 125 125 125 126
113 111 111 111 111 109 109 110 110 112 113 113 115 117 119 116 116 119 119 119 119 117 119 118 118 119 120 121 123 126 124 124 123 124 124 124 126 127 127 126 126 125 122
112 112 110 112 112 113 112 113 113 112 112 112 112 113 115 116 115 114 115 116 116 116 117 118 118 119 120 120 121 121 123 123 124 124 125 125 126 128 128 127 124 121 118
104 104 103 105 105 107 106 107 106 106 105 106 108 110 111 111 110 111 112 114 115 115 116 116 116 117 119 119 120 121 122 123 124 125 126 127 127 126 125 123 120 117 113
98 96 97 98 98 98 100 101 100 101 102 102 105 107 109 110 110 111 110 109 112 113 114 115 115 117 117 118 120 121 122 122 122 122 122 122 122 122 120 118 115 111 108
98 95 97 97 98 96 96 97 99 98 98 100 102 105 107 109 110 109 110 111 111 112 113 115 115 115 116 117 117 118 118 118 118 118 118 118 118 117 115 112 110 107 105
102 99 102 99 100 99 99 101 101 102 104 104 103 104 105 107 109 109 110 111 111 112 113 113 113 113 114 113 114 114 115 115 115 116 116 116 115 113 111 108 106 104 100
106 105 102 103 102 103 104 105 105 106 106 108 108 106 105 107 109 108 108 108 108 109 110 110 110 110 111 111 112 111 112 113 113 114 114 113 112 109 106 103 101 99 94
106 106 106 105 106 107 108 108 108 108 107 108 107 107 108 108 107 106 106 107 108 109 110 110 111 112 113 113 113 113 113 112 111 111 110 109 107 103 101 98 95 91 87
104 104 106 108 108 108 108 106 106 106 106 107 108 108 107 107 107 107 108 109 110 111 112 112 113 114 114 114 114 113 112 110 108 107 106 105 102 99 95 91 87 83 79
100 102 104 104 105 104 105 104 104 105 105 107 108 108 108 109 109 110 111 112 113 113 113 113 113 113 113 113 113 112 109 107 105 103 101 99 96 92 89 86 82 78 75
99 99 101 103 101 102 103 104 105 105 106 107 109 110 111 111 112 113 113 113 112 112 112 112 112 112 112 111 110 109 108 104 102 98 95 93 89 85 83 80 77 73 70
97 99 99 102 103 103 104 106 108 109 109 109 111 112 113 113 112 110 109 110 110 110 110 110 110 109 108 107 106 105 103 99 95 92 89 86 83 80 79 76 72 69 68

GFSGL_250_spd_060.txt.gz
Wind_Speed
74 75 76 77 76 76 75 72 70 67 68 70 69 70 69 72 72 74 74 77 79 80 82 85 85 87 89 91 92 93 95 97 99 101 104 106 110 114 119 120 121 122 122
81 81 83 82 82 80 77 74 73 69 71 72 72 74 75 75 76 79 80 81 83 83 86 88 89 90 91 94 96 99 102 103 105 106 109 113 117 119 124 124 121 121 124
87 86 86 86 84 83 81 78 74 72 73 74 76 77 77 77 81 83 84 86 86 88 88 89 91 93 96 98 101 105 108 108 110 112 114 119 122 124 122 119 119 125 124
90 88 88 87 86 85 83 78 77 76 78 79 80 81 81 82 84 86 88 89 91 90 90 91 94 97 101 104 106 108 111 112 114 117 120 123 122 121 119 121 123 126 124
90 92 92 91 89 89 87 86 84 82 81 83 84 86 88 89 88 90 91 93 93 93 94 98 100 102 105 107 110 113 114 116 119 120 121 123 121 120 120 121 125 127 133
96 96 94 91 88 87 88 88 87 90 88 87 89 90 91 93 93 94 93 95 97 98 102 103 105 107 109 112 112 114 116 117 119 118 116 117 122 125 128 132 129 132 130
99 98 101 96 96 99 99 99 96 94 92 92 94 95 97 97 99 99 101 103 104 105 106 107 108 110 112 112 112 112 109 112 115 117 113 117 120 127 128 127 129 131 130
109 108 105 104 101 97 93 94 96 98 98 98 98 100 101 102 102 103 104 107 107 108 108 110 111 113 112 110 111 111 112 115 113 116 121 126 125 127 129 133 131 129 126
98 96 95 94 91 90 92 96 97 98 100 101 101 103 104 104 103 104 104 107 108 107 108 109 109 108 107 110 113 115 119 119 120 121 122 123 127 131 132 130 131 129 127
89 88 90 92 91 92 93 93 95 97 98 98 100 101 102 103 103 103 101 101 104 104 103 104 108 110 111 115 118 122 124 125 125 128 133 134 133 131 130 129 129 129 128
99 101 102 102 101 99 102 104 106 105 105 104 104 106 105 105 106 105 103 102 103 108 111 110 113 116 117 119 122 127 130 129 131 131 129 129 129 129 128 128 129 129 128
104 103 105 106 108 108 104 104 107 109 109 109 109 108 108 109 110 110 110 110 111 114 115 115 118 120 123 127 127 129 129 128 128 128 127 126 127 126 126 128 130 130 130
110 106 106 106 110 110 108 107 106 106 107 110 110 110 110 110 113 114 115 116 115 119 119 121 121 123 127 128 127 127 128 127 125 125 126 126 125 125 126 128 129 130 131
116 115 114 114 112 111 112 111 112 112 110 112 113 114 114 114 117 117 117 118 121 121 121 120 121 122 123 126 126 125 125 125 126 125 125 124 123 124 126 128 128 128 129
118 118 117 116 113 113 114 114 112 112 112 112 113 113 114 115 116 118 117 118 119 120 120 118 118 119 122 121 121 122 123 122 122 122 123 124 126 127 127 126 127 127 127
114 115 112 112 112 112 110 107 106 107 105 105 106 106 107 108 110 112 112 112 113 114 114 115 116 118 119 119 120 121 122 122 124 124 124 124 123 124 124 125 125 125 123
111 111 111 109 109 108 103 104 105 107 107 108 108 108 108 108 107 108 110 110 110 112 113 113 115 119 119 119 120 122 122 121 121 122 123 123 122 122 122 122 122 122 122
116 111 110 108 108 103 104 105 103 104 103 104 104 103 104 103 103 105 106 107 107 108 109 110 111 113 112 114 116 118 118 117 118 120 120 119 120 120 120 120 121 121 120
114 112 105 102 105 103 101 101 100 97 99 99 100 100 101 101 103 104 104 105 106 105 106 107 108 110 112 112 113 113 114 114 116 118 119 119 119 120 119 118 118 117 116
106 108 103 100 100 100 97 95 95 98 101 102 101 102 102 102 103 104 105 106 105 104 106 108 110 112 113 111 111 112 113 115 117 118 119 120 119 118 115 114 113 111 109
102 106 104 100 100 102 101 98 96 98 102 104 106 108 108 107 105 107 105 105 104 106 108 110 111 111 110 110 111 113 116 118 119 119 119 118 116 113 111 110 108 106 103
100 105 106 105 103 102 102 101 99 99 101 103 106 109 108 109 109 106 104 104 103 104 105 106 107 108 110 112 114 117 119 119 118 116 114 112 111 108 106 105 102 99 96
97 103 104 101 104 104 103 101 101 101 101 100 101 104 106 104 102 102 104 103 102 103 105 107 109 111 113 116 117 118 117 115 112 112 110 109 107 104 101 98 95 92 88
94 99 99 96 98 103 106 103 100 99 99 99 100 101 103 103 101 101 102 103 105 107 110 111 112 113 116 115 113 113 112 111 109 107 105 103 101 97 93 91 86 83 79
93 94 96 100 100 98 100 102 99 99 99 99 101 101 103 105 105 105 106 108 109 110 111 112 111 110 110 110 109 108 106 103 102 100 97 94 92 89 85 82 80 77 74
96 97 97 99 101 100 99 100 102 103 102 104 105 105 106 107 107 107 107 108 109 110 111 110 109 107 105 103 101 99 97 96 94 91 89 87 85 81 79 77 74 71 69

GFSGL_250_spd_063.txt.gz
Wind_Speed
74 73 74 76 78 79 81 82 82 82 82 81 81 79 78 77 75 75 74 76 78 79 82 84 84 85 88 91 93 94 95 97 97 96 98 100 104 107 110 113 117 119 120
82 82 82 82 83 84 86 87 87 87 87 86 84 84 82 81 81 80 79 79 80 82 85 86 87 90 93 96 97 98 100 100 99 101 103 107 110 110 113 117 119 117 119
88 89 89 90 90 89 89 90 92 92 92 92 89 88 87 87 83 83 84 84 84 85 87 90 93 96 97 97 100 101 102 102 105 107 109 112 112 114 117 120 119 117 119
94 94 94 96 96 95 93 94 94 94 94 95 95 92 90 90 89 87 88 88 90 91 93 94 96 98 99 101 102 105 104 109 110 112 114 115 118 119 120 123 117 117 118
101 100 99 99 101 102 103 99 98 95 94 93 92 95 95 93 95 98 97 98 96 95 97 96 99 101 103 105 106 110 111 113 113 115 117 117 118 119 120 117 120 124 127
102 101 101 103 101 102 102 100 100 101 100 100 102 101 102 101 100 99 95 95 97 97 98 101 104 105 108 111 113 111 112 114 115 115 114 115 114 117 118 119 126 122 122
108 108 108 108 108 109 110 107 105 104 103 102 102 101 97 95 96 97 98 99 99 100 104 106 108 111 111 111 111 110 110 111 111 111 112 115 117 117 122 126 131 134 133
108 104 103 101 99 95 90 91 92 93 92 95 96 98 96 96 98 101 103 105 104 104 104 106 106 108 109 111 111 110 111 110 111 111 115 120 122 126 129 130 133 138 143
103 100 101 97 92 92 93 93 90 89 89 90 92 91 93 95 99 102 104 105 106 108 111 112 112 111 112 113 113 114 116 116 118 119 123 124 127 131 132 136 139 133 135
102 104 102 101 102 99 99 99 97 93 94 97 97 100 103 106 109 110 110 112 109 111 114 118 117 116 115 116 118 120 119 121 123 125 126 128 132 135 137 137 136 136 134
100 99 102 104 105 106 105 104 108 108 108 103 103 107 111 113 115 116 116 117 114 111 112 114 115 115 117 118 120 125 123 127 129 129 130 130 131 133 136 134 133 133 132
111 108 107 109 112 114 116 117 115 116 120 120 117 115 116 113 115 116 117 117 119 120 118 118 120 119 121 125 123 127 126 126 127 127 127 128 129 130 131 132 132 131 130
111 118 119 119 116 117 121 122 125 123 123 124 125 125 124 123 120 119 120 119 119 122 122 124 123 122 122 121 122 122 122 122 123 122 120 121 124 127 129 129 127 127 131
120 121 122 123 124 123 122 124 126 125 127 127 127 126 124 122 121 120 121 119 119 119 119 117 117 116 115 117 115 116 117 118 119 120 120 120 122 124 125 127 128 129 130
121 122 122 123 122 122 119 120 121 121 120 120 119 116 115 112 111 112 113 114 112 113 113 113 114 115 115 116 116 116 116 115 115 116 116 117 118 120 122 125 128 130 130
112 115 113 113 116 116 116 116 115 115 115 116 113 112 111 110 110 109 110 111 111 110 111 110 111 111 109 110 112 113 114 114 117 118 119 119 120 121 122 124 126 127 126
111 113 111 113 115 115 115 114 113 114 114 113 112 110 107 107 108 108 106 107 107 108 106 107 109 110 110 111 111 111 111 114 115 116 118 119 121 122 124 124 124 124 124
106 106 106 109 111 111 112 114 115 115 109 107 105 104 103 102 104 102 101 103 103 104 104 104 105 107 108 109 108 106 108 110 112 114 116 119 119 120 120 121 122 122 122
94 95 96 100 99 100 105 108 109 106 107 103 99 100 98 97 97 97 95 95 97 99 102 102 103 102 103 104 103 103 105 108 109 111 114 117 118 118 119 119 120 121 121
90 89 89 93 96 98 104 101 102 101 101 102 97 96 97 97 95 94 97 97 96 97 101 103 104 103 103 104 104 105 107 108 110 113 115 116 116 117 118 118 118 118 116
84 86 89 89 96 100 97 96 97 97 97 98 96 97 96 95 96 96 97 96 95 93 93 93 96 99 101 103 104 106 109 111 113 114 114 115 116 116 116 116 113 110 107
83 82 86 90 95 95 94 92 92 96 98 98 97 96 95 95 93 93 94 93 92 92 92 95 100 101 103 105 107 109 111 113 113 113 113 113 113 111 108 105 101 99 97
84 84 84 88 92 86 87 91 93 96 99 97 96 95 94 95 94 95 94 93 94 95 97 98 102 105 106 107 110 111 111 109 109 110 109 106 105 102 99 97 95 93 91
87 88 87 87 89 87 86 89 91 94 94 94 94 93 94 97 98 96 96 97 98 100 101 105 107 107 109 110 110 109 109 108 106 103 102 100 99 97 94 91 88 87 83
86 87 89 89 91 91 89 89 90 93 95 97 99 99 101 101 101 102 103 103 104 107 109 109 109 109 108 108 107 105 103 101 100 98 97 95 92 90 87 84 81 79 76
85 88 90 91 92 92 92 94 94 95 97 99 100 101 103 102 102 102 104 106 108 110 112 111 109 108 106 103 102 99 96 94 93 92 91 89 86 83 80 78 76 74 72

GFSGL_250_spd_069.txt.gz
Wind_Speed
81 82 82 84 85 85 86 88 89 91 92 93 94 92 91 91 93 93 93 95 96 98 98 96 99 101 100 99 101 100 100 100 102 99 96 96 98 101 102 103 105 107 108
87 85 85 86 86 88 90 91 93 96 95 93 93 94 95 96 100 100 102 103 104 102 103 101 102 104 100 99 98 97 98 100 100 98 93 96 99 99 100 104 105 108 112
88 87 88 90 91 93 94 96 97 95 96 98 99 100 101 103 104 104 103 104 103 105 107 108 105 101 103 99 97 95 92 91 94 97 95 97 100 100 103 106 110 111 114
93 94 95 95 95 95 95 96 97 99 100 102 104 106 106 108 107 109 111 112 113 111 108 106 104 100 96 94 93 91 93 94 93 95 96 97 100 103 106 109 111 116 119
99 99 99 99 99 100 101 103 105 107 109 112 113 115 115 116 115 112 112 108 106 106 107 102 100 95 95 94 96 98 97 99 98 98 100 103 105 108 112 114 119 123 124
104 105 105 105 106 109 110 111 114 116 119 120 119 117 117 117 119 114 112 110 102 96 98 95 95 98 100 101 101 102 103 103 102 106 110 111 112 113 118 117 119 121 125
111 113 112 113 114 117 118 119 120 123 126 126 123 123 116 111 110 101 96 97 96 96 94 97 99 102 105 107 106 107 109 110 112 116 120 119 120 121 126 127 126 128 126
116 117 118 119 119 122 123 122 121 121 111 109 108 105 101 103 102 101 103 102 102 104 105 104 105 109 111 112 112 111 113 113 116 119 123 126 126 124 125 128 127 125 126
120 123 124 122 120 119 120 116 110 104 103 105 106 107 106 109 109 110 112 114 116 117 116 114 116 118 117 116 117 120 121 124 127 130 131 133 133 132 132 124 120 122 121
117 118 117 113 112 111 109 103 107 108 109 110 110 115 117 116 115 120 120 119 123 125 124 128 127 128 125 125 129 131 129 127 129 129 129 127 126 122 119 118 116 119 120
108 109 110 108 105 108 110 113 114 116 118 121 121 120 120 126 129 130 129 129 129 131 131 131 135 138 138 136 132 127 128 128 126 121 120 117 116 117 114 115 117 117 119
110 109 108 109 113 115 116 116 121 127 129 129 130 131 131 132 133 133 138 139 140 137 136 135 132 133 131 128 122 122 120 116 116 117 116 116 114 115 114 115 115 117 118
111 113 116 119 122 124 124 126 126 129 130 133 135 138 140 143 142 139 139 135 133 131 129 125 121 118 118 113 115 116 116 115 112 112 111 111 110 110 110 110 111 112 113
118 120 123 125 127 129 130 130 131 131 132 134 136 137 135 134 131 128 126 124 122 122 120 120 118 115 116 112 113 110 109 107 106 105 103 104 103 103 103 104 108 109 110
125 127 129 131 132 133 133 133 134 135 134 132 130 128 124 123 121 121 120 118 118 118 115 113 112 109 107 105 105 102 102 100 99 98 97 97 98 101 102 103 104 106 109
133 134 135 135 133 132 129 126 124 122 121 121 120 119 117 115 113 110 109 109 108 106 105 104 102 102 101 99 96 93 92 91 91 93 95 96 98 99 101 104 105 107 110
131 129 127 125 123 121 119 118 117 115 113 111 109 107 106 105 105 105 102 102 101 101 101 100 99 97 97 94 92 91 89 89 89 92 93 95 96 98 101 102 103 106 107
123 121 120 118 116 113 109 107 106 104 104 103 102 101 100 100 102 101 99 98 97 96 96 94 92 92 93 93 90 88 89 91 92 93 94 96 97 98 99 101 101 102 104
109 108 107 106 105 104 100 98 98 96 96 97 96 96 96 97 97 97 94 93 93 92 91 90 90 89 87 87 89 91 91 93 93 94 94 95 96 96 97 98 100 103 107
102 102 101 100 98 95 90 89 90 91 91 91 91 92 93 94 95 95 93 92 92 91 88 87 87 87 86 87 89 90 93 93 94 94 94 94 95 97 100 103 105 107 109
97 96 96 94 94 93 89 88 89 90 89 91 91 90 91 92 93 91 91 89 89 89 90 90 90 89 89 91 91 93 95 95 97 98 99 99 99 101 103 106 107 103 99
95 96 96 95 94 93 92 91 93 92 91 91 91 91 92 92 91 91 90 90 90 89 89 90 90 92 93 93 94 95 96 98 99 100 101 102 103 104 104 100 96 95 97
94 95 94 93 93 94 92 92 92 93 92 92 93 92 91 91 93 93 92 92 90 90 90 90 91 92 93 95 97 98 99 99 100 101 102 103 103 99 96 95 95 94 92
92 93 93 92 93 94 91 92 91 90 91 92 92 90 91 92 92 94 93 92 92 92 92 92 93 95 96 96 98 99 100 99 100 101 101 97 93 93 92 90 89 89 87
90 90 90 90 91 91 90 90 90 90 90 89 89 89 90 91 91 92 93 94 94 95 94 95 96 98 98 99 99 99 99 99 97 96 95 94 91 89 89 87 84 83 81
86 85 85 85 85 84 85 86 86 86 87 87 88 88 88 90 92 93 94 94 94 95 96 96 96 96 97 98 99 97 97 95 94 95 93 89 87 85 83 81 80 78 76

GFSGL_250_spd_072.txt.gz
Wind_Speed
86 88 88 88 88 88 89 88 88 89 89 91 92 93 93 94 95 94 94 95 96 99 102 107 108 111 110 107 112 107 106 107 105 95 91 82 84 84 87 88 91 95 96
91 91 90 90 89 89 89 90 91 92 92 93 95 95 96 97 99 99 101 103 105 107 107 108 110 116 116 111 110 107 104 101 103 91 87 85 87 91 92 94 96 99 102
94 94 92 90 90 90 90 92 94 96 96 98 100 101 101 101 103 105 106 108 110 108 112 114 115 112 109 107 101 97 97 97 94 95 92 92 94 98 100 103 104 107 109
95 93 93 95 96 97 98 99 100 101 101 102 101 103 104 106 108 110 111 112 114 116 115 115 108 99 96 98 96 95 94 99 98 100 98 99 102 105 109 112 114 115 118
97 98 99 100 102 104 103 104 104 104 106 105 107 110 112 115 116 117 118 117 116 111 110 104 104 97 99 103 100 102 102 103 105 105 106 107 108 109 112 114 115 118 120
105 106 106 106 105 104 105 108 110 111 112 114 117 118 121 119 120 119 118 119 117 114 106 104 104 103 106 107 107 108 110 115 115 117 119 120 119 121 122 124 125 123 130
107 106 107 108 110 114 116 114 116 117 120 121 123 125 127 129 126 128 123 118 109 108 108 106 109 109 111 114 115 116 117 117 119 123 124 122 122 117 123 125 128 130 132
110 115 118 120 122 120 122 123 124 127 127 129 126 127 129 127 122 120 118 111 108 109 111 115 116 118 120 120 121 123 123 128 130 132 135 135 135 131 129 126 123 119 114
123 124 127 127 125 126 125 125 126 127 125 120 118 117 115 113 113 114 109 112 116 118 120 122 125 126 128 130 132 133 136 139 140 139 139 128 127 122 119 116 111 111 113
126 126 125 125 125 123 122 116 111 112 113 113 111 112 111 111 112 112 114 118 121 125 128 127 130 130 129 133 135 138 139 138 134 127 122 116 114 113 112 112 110 111 114
124 121 119 117 116 110 106 109 110 111 113 114 116 120 120 117 119 121 122 128 132 135 135 138 140 140 139 139 136 132 127 120 118 116 113 112 111 113 108 106 106 106 107
114 113 111 113 116 117 115 115 117 120 121 120 120 120 121 123 125 127 130 134 137 140 140 141 139 136 132 125 120 118 116 113 110 109 105 105 103 102 101 100 97 98 100
116 118 120 122 124 127 127 127 128 128 126 124 124 126 127 130 132 134 135 137 138 136 131 128 125 123 120 116 112 108 104 100 98 96 94 94 95 95 93 93 93 95 97
122 125 127 128 129 129 129 130 130 131 132 131 132 134 134 136 138 137 134 129 123 122 120 118 115 110 106 102 100 99 94 93 91 89 88 88 89 91 90 91 92 94 97
127 128 129 131 132 132 134 136 137 137 137 137 137 135 131 127 124 122 120 118 116 112 109 107 104 102 100 97 96 95 92 89 88 86 85 86 87 88 89 91 90 91 94
130 130 130 131 133 133 134 134 135 133 131 126 122 120 118 116 115 112 110 108 106 104 103 100 99 97 95 93 91 90 90 87 86 85 85 86 87 88 89 89 91 93 94
132 131 130 130 129 129 127 123 121 120 118 115 113 111 110 108 107 105 104 103 101 100 98 97 93 92 91 89 87 86 87 86 84 84 86 88 90 89 90 92 94 95 96
125 123 121 119 119 118 118 116 115 114 112 110 108 106 105 103 102 101 99 96 94 93 92 90 90 88 87 86 85 85 85 85 86 87 88 89 90 92 94 95 96 96 97
116 114 112 112 112 111 110 110 108 107 105 102 101 101 99 97 95 94 94 93 92 91 90 89 89 90 88 87 86 86 87 88 88 89 90 91 92 95 96 95 96 98 99
112 110 108 107 107 106 104 102 101 101 99 97 97 97 96 94 94 94 94 93 92 93 92 90 89 90 90 91 89 88 89 90 91 91 91 92 94 95 96 97 98 99 100
111 109 107 104 103 103 101 100 99 98 96 95 95 95 95 94 93 93 93 93 93 92 92 92 92 92 91 91 92 92 92 92 93 94 94 95 97 97 97 99 100 101 100
103 100 98 98 99 98 99 99 98 97 97 96 95 95 94 93 93 93 93 92 92 93 92 93 92 92 92 92 94 95 95 95 97 98 99 98 98 99 100 100 99 96 94
97 95 94 95 94 95 96 95 95 96 96 95 92 92 93 94 93 92 91 91 90 91 92 92 91 92 93 94 95 96 96 96 98 99 99 99 98 98 97 95 93 93 92
93 93 93 93 92 91 91 90 92 94 94 92 90 91 91 90 90 90 90 90 90 90 90 89 91 93 94 95 96 96 97 97 96 95 95 95 94 91 91 93 90 86 84
88 87 87 87 87 88 88 88 90 90 89 87 87 86 85 84 84 85 86 87 87 87 88 90 91 92 94 95 96 96 95 93 93 94 91 88 88 89 88 86 85 83 81
84 84 84 85 85 84 84 83 82 82 81 80 79 78 78 79 80 81 82 83 84 85 86 88 89 89 90 91 91 91 91 91 89 88 88 86 84 83 84 82 80 78 77

GFSGL_250_spd_075.txt.gz
Wind_Speed
90 89 88 87 88 88 87 86 87 88 87 88 88 90 89 90 93 94 95 94 94 96 98 102 100 104 105 106 107 112 111 113 113 104 98 86 86 86 85 87 89 93 95
95 93 91 90 93 93 93 93 93 92 92 93 93 93 94 98 100 99 98 100 102 102 105 104 106 108 111 111 113 113 115 115 113 97 90 90 92 91 95 98 101 101 104
94 93 93 95 97 98 97 97 97 96 95 95 98 100 102 101 102 102 103 107 107 108 110 115 117 119 118 116 117 119 114 105 100 101 95 101 99 101 104 107 108 109 110
96 97 99 100 101 101 100 101 101 101 102 104 105 105 102 102 106 108 110 113 117 118 119 119 120 121 121 121 117 113 113 107 105 104 107 108 108 110 111 113 114 116 117
100 102 105 106 105 104 105 107 107 108 108 106 105 105 108 110 114 118 122 124 122 121 122 124 125 123 122 119 119 110 112 112 110 107 111 113 116 118 121 124 124 126 127
106 108 108 106 107 108 109 108 108 108 108 108 110 113 117 122 122 125 124 123 123 124 126 127 122 114 112 113 110 108 109 110 111 113 118 119 122 126 125 126 126 131 134
112 112 112 111 109 107 106 106 106 108 112 117 121 125 126 124 126 129 129 127 126 122 118 114 113 112 114 115 114 112 113 113 119 123 126 128 129 129 132 136 135 136 129
115 113 110 108 106 107 110 114 119 124 129 133 132 132 131 130 125 126 119 117 114 113 111 115 116 118 121 120 120 123 122 124 126 128 130 133 136 135 133 128 123 118 115
111 111 112 113 116 120 126 133 133 130 128 130 130 128 127 126 122 117 115 116 115 118 122 125 124 124 124 125 124 126 126 127 130 132 135 136 136 128 118 115 114 110 107
119 122 125 128 132 136 136 137 134 132 132 134 129 127 121 117 117 119 119 124 126 129 130 131 133 134 135 134 130 130 131 133 135 138 139 127 118 114 109 104 100 98 96
128 131 135 136 136 134 131 131 133 128 126 122 118 121 122 122 128 128 132 133 135 135 135 138 139 139 137 137 137 137 138 138 131 118 113 110 105 100 95 93 91 90 90
138 140 143 136 132 131 132 128 127 126 126 126 128 127 131 133 134 135 137 138 140 139 138 137 139 138 140 138 134 127 121 116 111 106 102 99 95 92 90 90 89 89 88
139 135 129 128 128 129 131 132 130 129 130 130 133 134 135 139 141 141 140 140 141 143 145 144 140 136 128 119 114 110 104 101 97 96 94 93 91 88 87 86 86 85 86
126 129 131 132 134 135 135 136 135 134 135 138 140 141 141 140 142 142 141 139 138 133 122 116 112 110 107 103 100 97 94 92 90 89 89 87 86 84 84 83 83 84 84
132 134 135 136 135 135 135 136 140 141 141 144 145 145 143 138 133 130 126 121 117 113 109 106 102 99 98 95 93 91 89 86 84 83 82 82 83 83 82 82 83 84 84
135 136 136 135 133 134 134 135 142 144 143 144 145 135 124 119 117 116 113 109 107 104 101 99 96 94 92 90 89 87 85 84 83 82 82 83 82 83 83 84 83 83 83
137 136 134 134 136 137 140 139 129 126 129 126 121 117 113 110 110 110 108 105 102 100 98 96 93 92 90 88 86 84 84 84 83 82 83 84 83 85 85 85 85 85 86
134 135 134 131 131 129 126 123 119 117 116 115 114 112 110 108 107 107 104 100 98 97 95 94 91 90 89 88 86 87 87 86 85 84 85 85 85 84 84 85 87 88 90
128 125 126 125 122 120 118 116 116 115 113 113 111 108 104 102 102 101 98 96 96 94 94 93 91 89 89 88 87 87 88 88 88 87 86 86 87 87 87 88 88 89 90
126 123 121 120 119 119 118 117 116 114 109 106 102 99 96 93 93 93 93 93 93 93 92 90 90 90 89 89 88 87 87 87 88 87 88 88 88 88 88 88 89 90 89
119 120 120 120 120 119 117 114 110 103 98 94 92 91 90 89 90 89 90 91 91 91 90 89 89 90 90 91 90 88 87 87 87 87 88 89 89 89 89 89 89 89 89
118 119 118 116 114 110 107 104 99 92 88 86 85 86 87 88 89 88 88 89 89 88 89 89 89 89 89 88 87 86 87 87 87 87 88 89 88 88 89 88 87 85 84
115 112 109 106 102 98 94 91 88 87 85 84 85 86 86 85 86 86 87 88 87 88 86 84 84 84 84 84 83 83 83 84 85 86 87 86 86 86 85 84 83 82 82
109 105 101 96 93 90 88 88 88 88 86 86 87 86 86 86 85 85 85 83 83 82 81 81 79 78 78 78 78 80 82 82 83 84 84 83 83 82 82 81 81 82 82
102 99 95 92 90 87 86 85 85 84 83 83 83 82 81 81 80 77 77 78 78 77 77 77 77 76 75 76 77 78 79 81 82 83 81 80 80 80 80 80 80 80 78
98 94 90 86 84 81 79 78 77 77 77 76 75 76 76 75 75 73 74 74 75 75 76 76 74 73 74 75 76 78 78 78 79 78 78 77 77 78 79 77 76 75 75